This is the latest recevied weather packets stored in our database for station/object WA5TET. If no packets are shown the sender has not sent any weather packets the latest 10 day(s).
| Time | Temp. | Humidity | Pressure | Rain* | Wind** | Luminosity | Snow |
|---|---|---|---|---|---|---|---|
| 1788527938 | 26.67° C | 85% | 1013.3 hPa | 0 mm | - | 127 W/m² | - |
| 1788527634 | 26.67° C | 85% | 1013.2 hPa | 0 mm | - | 106 W/m² | - |
| 1788527329 | 26.67° C | 84% | 1013.3 hPa | 0 mm | - | 86 W/m² | - |
| 1788527028 | 26.11° C | 85% | 1013.2 hPa | 0 mm | - | 84 W/m² | - |
| 1788526723 | 26.11° C | 85% | 1013.1 hPa | 0 mm | - | 72 W/m² | - |
| 1788526420 | 26.11° C | 86% | 1012.9 hPa | 0 mm | - | 68 W/m² | - |
| 1788526119 | 26.11° C | 86% | 1013 hPa | 0 mm | - | 52 W/m² | - |
| 1788525815 | 25.56° C | 87% | 1012.9 hPa | 0 mm | - | 49 W/m² | - |
| 1788525510 | 25.56° C | 87% | 1013.1 hPa | 0 mm | - | 43 W/m² | - |
| 1788525206 | 25.56° C | 87% | 1013 hPa | 0 mm | - | 29 W/m² | - |
| 1788524901 | 25.56° C | 87% | 1013 hPa | 0 mm | - | 24 W/m² | - |
| 1788524600 | 25.56° C | 87% | 1012.7 hPa | 0 mm | - | 20 W/m² | - |
| 1788524296 | 25.56° C | 87% | 1012.8 hPa | 0 mm | - | 15 W/m² | - |
| 1788523992 | 25.56° C | 87% | 1012.9 hPa | 0 mm | - | 11 W/m² | - |
| 1788523688 | 25.56° C | 87% | 1012.8 hPa | 0 mm | - | 7 W/m² | - |
| 1788523383 | 25.56° C | 87% | 1012.8 hPa | 0 mm | - | 4 W/m² | - |
| 1788523079 | 25.56° C | 86% | 1012.7 hPa | 0 mm | - | 2 W/m² | - |
| 1788522774 | 25.56° C | 86% | 1012.8 hPa | 0 mm | - | 1 W/m² | - |
| 1788522468 | 25.56° C | 86% | 1012.6 hPa | 0 mm | - | 0 W/m² | - |
| 1788522168 | 25.56° C | 86% | 1012.6 hPa | 0 mm | - | 0 W/m² | - |
| 1788521863 | 25.56° C | 85% | 1012.7 hPa | 0 mm | - | 0 W/m² | - |
| 1788521562 | 25.56° C | 85% | 1012.6 hPa | 0 mm | - | 0 W/m² | - |
| 1788521257 | 25.56° C | 84% | 1012.7 hPa | 0 mm | - | 0 W/m² | - |
| 1788520953 | 25.56° C | 84% | 1012.6 hPa | 0 mm | - | 0 W/m² | - |
| 1788520649 | 25.56° C | 84% | 1012.6 hPa | 0 mm | - | 0 W/m² | - |
* Rain latest hour (hover to see other rain measurements)
** Current wind speed in m/s (hover to see current wind gust speed)